Weather History for KFKL - May, 2013

Change the Weather History Date:

Sunday, May 19, 2013

  Actual Average Record
Temperature  
Mean Temperature 67 °F -  
Max Temperature 77 °F 71 °F 89 °F (1962)
Min Temperature 57 °F 45 °F 28 °F (2002)
Cooling Degree Days 2    
Growing Degree Days 17 (Base 50)    
Moisture  
Dew Point 57 °F    
Average Humidity 72    
Maximum Humidity 88    
Minimum Humidity 54    
Precipitation  
Precipitation 0.00 in - - ()
Sea Level Pressure  
Sea Level Pressure 30.11 in    
Wind  
Wind Speed 10 mph (SE)    
Max Wind Speed 15 mph    
Max Gust Speed 22 mph    
Visibility 10 miles    
Events      
Averages and records for this station are not official NWS values.
T = Trace of Precipitation, MM = Missing Value Source: NWS Daily Summary

Daily Weather History Graph

Daily Weather History Graph

Search for Another Location

Airport or City:

Trip Planner

Search our weather history database for the weather conditions in past years. The results will help you decide how hot, cold, wet, or windy it might be!

Date:

Astronomy

May. 19, 2013 Rise Set
Actual Time 5:56 AM EDT 8:35 PM EDT
Civil Twilight 5:24 AM EDT 9:07 PM EDT
Nautical Twilight 4:44 AM EDT 9:47 PM EDT
Astronomical Twilight 3:59 AM EDT 10:33 PM EDT
Moon 2:34 PM EDT (5/19) 2:23 AM EDT (5/19)
Length of Visible Light 15h 42m
Length of Day
14h 38m
Waxing Gibbous, 65% of the Moon is Illuminated
May 19
Waxing Gibbous
May 25
Full
May 31
Last Quarter
Jun 8
New
Jun 16
First Quarter

Hourly Weather History & Observations

Time (EDT) Temp. Dew Point Humidity Pressure Visibility Wind Dir Wind Speed Gust Speed Precip Events Conditions
12:15 AM 60.8 °F 53.6 °F 77% 30.14 in 10.0 mi SE 13.8 mph 21.9 mph N/A   Mostly Cloudy
12:35 AM 60.8 °F 53.6 °F 77% 30.14 in 10.0 mi ESE 12.7 mph 17.3 mph N/A   Overcast
12:55 AM 60.8 °F 53.6 °F 77% 30.14 in 10.0 mi ESE 12.7 mph - N/A   Scattered Clouds
1:15 AM 59.0 °F 53.6 °F 82% 30.14 in 10.0 mi SE 9.2 mph - N/A   Clear
1:35 AM 59.0 °F 53.6 °F 82% 30.13 in 10.0 mi ESE 10.4 mph - N/A   Mostly Cloudy
1:55 AM 60.8 °F 53.6 °F 77% 30.13 in 10.0 mi ESE 11.5 mph - N/A   Overcast
2:15 AM 59.0 °F 53.6 °F 82% 30.13 in 10.0 mi ESE 9.2 mph - N/A   Mostly Cloudy
2:35 AM 57.2 °F 53.6 °F 88% 30.13 in 10.0 mi ESE 9.2 mph - N/A   Scattered Clouds
2:55 AM 59.0 °F 55.4 °F 88% 30.13 in 10.0 mi ESE 9.2 mph - N/A   Overcast
3:15 AM 60.8 °F 55.4 °F 82% 30.12 in 10.0 mi ESE 10.4 mph - N/A   Overcast
3:35 AM 60.8 °F 55.4 °F 82% 30.12 in 10.0 mi ESE 8.1 mph 16.1 mph N/A   Overcast
3:55 AM 59.0 °F 55.4 °F 88% 30.12 in 10.0 mi ESE 9.2 mph - N/A   Overcast
4:15 AM 59.0 °F 55.4 °F 88% 30.12 in 10.0 mi ESE 9.2 mph - N/A   Overcast
4:35 AM 59.0 °F 55.4 °F 88% 30.12 in 10.0 mi ESE 10.4 mph - N/A   Overcast
4:55 AM 59.0 °F 53.6 °F 82% 30.13 in 10.0 mi ESE 11.5 mph - N/A   Overcast
5:15 AM 59.0 °F 53.6 °F 82% 30.13 in 10.0 mi ESE 10.4 mph - N/A   Overcast
5:35 AM 59.0 °F 53.6 °F 82% 30.13 in 10.0 mi SE 9.2 mph - N/A   Overcast
5:55 AM 59.0 °F 53.6 °F 82% 30.14 in 10.0 mi ESE 9.2 mph - N/A   Overcast
6:15 AM 59.0 °F 53.6 °F 82% 30.15 in 10.0 mi ESE 8.1 mph - N/A   Overcast
6:35 AM 59.0 °F 53.6 °F 82% 30.15 in 10.0 mi SE 8.1 mph - N/A   Overcast
6:55 AM 59.0 °F 53.6 °F 82% 30.15 in 10.0 mi SE 10.4 mph - N/A   Overcast
7:15 AM 59.0 °F 53.6 °F 82% 30.15 in 10.0 mi ESE 10.4 mph - N/A   Overcast
7:35 AM 60.8 °F 53.6 °F 77% 30.15 in 10.0 mi SE 10.4 mph - N/A   Overcast
8:15 AM 60.8 °F 55.4 °F 82% 30.16 in 10.0 mi SE 9.2 mph - N/A   Partly Cloudy
8:35 AM 62.6 °F 55.4 °F 77% 30.16 in 10.0 mi SE 12.7 mph - N/A   Scattered Clouds
8:55 AM 64.4 °F 55.4 °F 73% 30.16 in 10.0 mi SE 8.1 mph - N/A   Scattered Clouds
9:15 AM 64.4 °F 55.4 °F 73% 30.16 in 10.0 mi SE 5.8 mph - N/A   Partly Cloudy
9:35 AM 64.4 °F 55.4 °F 73% 30.16 in 10.0 mi ESE 8.1 mph - N/A   Clear
9:55 AM 66.2 °F 57.2 °F 73% 30.15 in 10.0 mi SE 9.2 mph - N/A   Clear
10:15 AM 68.0 °F 57.2 °F 68% 30.14 in 10.0 mi SE 10.4 mph - N/A   Clear
10:55 AM 69.8 °F 57.2 °F 64% 30.13 in 10.0 mi South 9.2 mph 16.1 mph N/A   Clear
11:15 AM 71.6 °F 59.0 °F 64% 30.13 in 10.0 mi SSE 8.1 mph - N/A   Clear
11:35 AM 71.6 °F 60.8 °F 69% 30.13 in 10.0 mi SSE 9.2 mph - N/A   Clear
11:55 AM 73.4 °F 60.8 °F 65% 30.12 in 10.0 mi South 8.1 mph - N/A   Partly Cloudy
12:15 PM 75.2 °F 60.8 °F 61% 30.11 in 10.0 mi SSE 11.5 mph 16.1 mph N/A   Partly Cloudy
12:35 PM 75.2 °F 60.8 °F 61% 30.11 in 10.0 mi SE 12.7 mph 17.3 mph N/A   Mostly Cloudy
12:55 PM 75.2 °F 59.0 °F 57% 30.09 in 10.0 mi South 15.0 mph 18.4 mph N/A   Scattered Clouds
1:15 PM 73.4 °F 59.0 °F 61% 30.09 in 10.0 mi South 11.5 mph - N/A   Mostly Cloudy
1:35 PM 77.0 °F 59.0 °F 54% 30.09 in 10.0 mi South 11.5 mph - N/A   Mostly Cloudy
1:55 PM 77.0 °F 60.8 °F 57% 30.08 in 10.0 mi SSE 9.2 mph - N/A   Mostly Cloudy
2:15 PM 75.2 °F 59.0 °F 57% 30.08 in 10.0 mi SE 8.1 mph - N/A   Mostly Cloudy
2:35 PM 75.2 °F 59.0 °F 57% 30.08 in 10.0 mi South 9.2 mph - N/A   Overcast
3:15 PM 73.4 °F 59.0 °F 61% 30.07 in 10.0 mi SE 9.2 mph - N/A   Overcast
3:35 PM 73.4 °F 59.0 °F 61% 30.06 in 10.0 mi SSE 10.4 mph 16.1 mph N/A   Overcast
4:15 PM 75.2 °F 59.0 °F 57% 30.05 in 10.0 mi SSE 9.2 mph 17.3 mph N/A   Overcast
4:35 PM 75.2 °F 59.0 °F 57% 30.05 in 10.0 mi SE 8.1 mph - N/A   Overcast
4:55 PM 73.4 °F 59.0 °F 61% 30.06 in 10.0 mi SSE 10.4 mph - N/A   Overcast
5:15 PM 73.4 °F 59.0 °F 61% 30.06 in 10.0 mi ESE 10.4 mph - N/A   Overcast
5:35 PM 73.4 °F 59.0 °F 61% 30.07 in 10.0 mi SE 5.8 mph - N/A   Overcast
5:55 PM 73.4 °F 57.2 °F 57% 30.07 in 10.0 mi SE 8.1 mph - N/A   Overcast
6:15 PM 73.4 °F 59.0 °F 61% 30.07 in 10.0 mi ESE 9.2 mph - N/A   Overcast
6:35 PM 71.6 °F 59.0 °F 64% 30.06 in 10.0 mi SE 11.5 mph - N/A   Overcast
7:15 PM 73.4 °F 59.0 °F 61% 30.04 in 10.0 mi SE 8.1 mph - N/A   Mostly Cloudy
7:35 PM 71.6 °F 57.2 °F 60% 30.05 in 10.0 mi SE 10.4 mph - N/A   Partly Cloudy
7:55 PM 69.8 °F 57.2 °F 64% 30.05 in 10.0 mi SE 12.7 mph 18.4 mph N/A   Clear
8:15 PM 69.8 °F 57.2 °F 64% 30.05 in 10.0 mi SE 13.8 mph 18.4 mph N/A   Clear
8:35 PM 66.2 °F 57.2 °F 73% 30.06 in 10.0 mi SE 10.4 mph - N/A   Clear
8:55 PM 66.2 °F 57.2 °F 73% 30.07 in 10.0 mi SE 10.4 mph 16.1 mph N/A   Clear
9:15 PM 66.2 °F 57.2 °F 73% 30.07 in 10.0 mi SE 12.7 mph - N/A   Clear
9:35 PM 64.4 °F 57.2 °F 77% 30.08 in 10.0 mi SE 12.7 mph 18.4 mph N/A   Clear
9:55 PM 64.4 °F 57.2 °F 77% 30.09 in 10.0 mi SE 10.4 mph - N/A   Clear
10:15 PM 62.6 °F 57.2 °F 82% 30.09 in 10.0 mi SE 10.4 mph - N/A   Clear
10:35 PM 62.6 °F 55.4 °F 77% 30.09 in 10.0 mi ESE 9.2 mph - N/A   Clear
10:55 PM 62.6 °F 55.4 °F 77% 30.09 in 10.0 mi ESE 9.2 mph - N/A   Clear
11:15 PM 62.6 °F 55.4 °F 77% 30.08 in 10.0 mi ESE 9.2 mph - N/A   Clear
11:35 PM 62.6 °F 55.4 °F 77% 30.07 in 10.0 mi SE 6.9 mph - N/A   Clear
11:55 PM 60.8 °F 55.4 °F 82% 30.07 in 10.0 mi ESE 8.1 mph - N/A   Clear